QPF
0.00 0.00 0.00 0.00 0.00 0.00 0.00 0.00 0.00 0.00 0.00 0.00 0.00 0.00 0.00 0.00 0.00 0.00 0.00 0.00 0.00 0.00 0.00 0.00 0.03 0.02 0.01 0.00 0.00 0.00 0.00 0.00 0.00 0.00 0.00 0.00 0.00 0.00 0.00 0.00 0.00 0.00 0.00 0.00 0.00 0.00 0.00 0.00 0.00
0.00 0.00 0.00 0.00 0.00 0.00 0.00 0.00 0.00 0.00 0.00 0.00 0.00 0.00 0.00 0.00 0.00 0.00 0.00 0.00 0.00 0.00 0.00 0.00 0.02 0.02 0.00 0.00 0.00 0.00 0.00 0.00 0.00 0.00 0.00 0.01 0.00 0.00 0.00 0.00 0.00 0.00 0.00 0.00 0.00 0.00 0.00 0.00 0.00
0.00 0.00 0.00 0.00 0.00 0.00 0.00 0.00 0.00 0.00 0.00 0.00 0.00 0.00 0.00 0.00 0.00 0.00 0.00 0.00 0.00 0.00 0.00 0.00 0.01 0.01 0.00 0.00 0.00 0.00 0.00 0.00 0.00 0.00 0.01 0.00 0.00 0.00 0.00 0.00 0.00 0.00 0.00 0.00 0.00 0.00 0.00 0.00 0.00
0.00 0.00 0.00 0.00 0.00 0.00 0.00 0.00 0.00 0.00 0.00 0.00 0.00 0.00 0.00 0.00 0.00 0.00 0.00 0.00 0.00 0.00 0.00 0.00 0.01 0.01 0.00 0.00 0.00 0.00 0.00 0.00 0.00 0.00 0.00 0.00 0.00 0.00 0.00 0.00 0.00 0.00 0.00 0.00 0.00 0.00 0.00 0.00 0.00
0.00 0.00 0.00 0.00 0.00 0.00 0.00 0.00 0.00 0.00 0.00 0.00 0.00 0.00 0.00 0.00 0.00 0.00 0.00 0.00 0.00 0.00 0.00 0.00 0.01 0.01 0.00 0.00 0.00 0.00 0.00 0.00 0.00 0.00 0.00 0.00 0.00 0.00 0.00 0.00 0.00 0.00 0.00 0.00 0.00 0.00 0.00 0.00 0.00
0.00 0.00 0.00 0.00 0.00 0.00 0.00 0.00 0.00 0.00 0.00 0.00 0.00 0.00 0.00 0.00 0.00 0.00 0.00 0.00 0.00 0.00 0.00 0.00 0.00 0.00 0.00 0.00 0.00 0.00 0.00 0.00 0.00 0.00 0.00 0.00 0.00 0.00 0.00 0.00 0.01 0.00 0.00 0.00 0.00 0.00 0.00 0.00 0.00
0.00 0.00 0.00 0.00 0.00 0.00 0.00 0.00 0.00 0.00 0.00 0.00 0.00 0.00 0.00 0.00 0.00 0.00 0.00 0.00 0.00 0.00 0.00 0.00 0.00 0.00 0.00 0.00 0.00 0.00 0.00 0.00 0.00 0.00 0.00 0.00 0.00 0.00 0.00 0.01 0.01 0.01 0.00 0.00 0.00 0.00 0.00 0.00 0.00
0.00 0.00 0.00 0.00 0.00 0.00 0.00 0.00 0.00 0.00 0.00 0.00 0.00 0.00 0.00 0.00 0.00 0.00 0.00 0.00 0.00 0.00 0.00 0.00 0.00 0.00 0.00 0.00 0.00 0.00 0.00 0.00 0.00 0.00 0.00 0.00 0.00 0.00 0.00 0.00 0.00 0.00 0.00 0.00 0.00 0.00 0.00 0.00 0.00
0.00 0.00 0.00 0.00 0.00 0.00 0.00 0.00 0.00 0.00 0.00 0.00 0.00 0.00 0.00 0.00 0.00 0.00 0.00 0.00 0.00 0.00 0.00 0.00 0.00 0.00 0.00 0.00 0.00 0.00 0.00 0.00 0.00 0.00 0.00 0.00 0.00 0.00 0.00 0.00 0.00 0.00 0.00 0.00 0.00 0.00 0.00 0.00 0.00
0.00 0.00 0.00 0.00 0.00 0.00 0.00 0.00 0.00 0.00 0.00 0.00 0.00 0.00 0.00 0.00 0.00 0.00 0.00 0.00 0.00 0.00 0.00 0.00 0.00 0.00 0.00 0.00 0.00 0.00 0.00 0.00 0.00 0.00 0.00 0.00 0.00 0.00 0.00 0.00 0.00 0.00 0.00 0.00 0.00 0.00 0.00 0.00 0.00
0.00 0.00 0.00 0.00 0.00 0.00 0.00 0.00 0.00 0.00 0.00 0.00 0.00 0.00 0.00 0.00 0.00 0.00 0.00 0.00 0.00 0.00 0.00 0.00 0.00 0.00 0.00 0.00 0.00 0.00 0.00 0.00 0.00 0.00 0.00 0.00 0.00 0.00 0.00 0.00 0.00 0.00 0.00 0.00 0.00 0.00 0.00 0.00 0.00
0.00 0.00 0.00 0.00 0.00 0.00 0.00 0.00 0.00 0.00 0.00 0.00 0.00 0.00 0.00 0.00 0.00 0.00 0.00 0.00 0.00 0.00 0.00 0.00 0.00 0.00 0.00 0.00 0.00 0.00 0.00 0.00 0.00 0.00 0.00 0.00 0.00 0.00 0.00 0.00 0.00 0.00 0.00 0.00 0.00 0.00 0.00 0.00 0.00
0.00 0.00 0.00 0.00 0.00 0.00 0.00 0.00 0.00 0.00 0.00 0.00 0.00 0.00 0.00 0.00 0.00 0.00 0.00 0.00 0.00 0.00 0.00 0.00 0.00 0.00 0.00 0.00 0.00 0.00 0.00 0.00 0.00 0.00 0.00 0.00 0.00 0.00 0.00 0.00 0.00 0.00 0.00 0.00 0.00 0.00 0.00 0.00 0.00
0.00 0.00 0.00 0.00 0.00 0.00 0.00 0.00 0.00 0.00 0.00 0.00 0.00 0.00 0.00 0.00 0.00 0.00 0.00 0.00 0.00 0.00 0.00 0.00 0.00 0.00 0.00 0.00 0.00 0.00 0.00 0.00 0.00 0.00 0.00 0.00 0.00 0.00 0.00 0.00 0.00 0.00 0.00 0.00 0.00 0.00 0.00 0.00 0.00
0.00 0.00 0.00 0.00 0.00 0.00 0.00 0.00 0.00 0.00 0.00 0.00 0.00 0.00 0.00 0.00 0.00 0.00 0.00 0.00 0.00 0.00 0.00 0.00 0.00 0.00 0.00 0.00 0.00 0.00 0.00 0.00 0.00 0.00 0.00 0.00 0.00 0.00 0.00 0.00 0.00 0.00 0.00 0.00 0.00 0.00 0.00 0.00 0.00
0.00 0.00 0.00 0.00 0.00 0.00 0.00 0.00 0.00 0.00 0.00 0.00 0.00 0.00 0.00 0.00 0.00 0.00 0.00 0.00 0.00 0.00 0.00 0.00 0.00 0.00 0.00 0.00 0.00 0.00 0.00 0.00 0.00 0.00 0.00 0.00 0.00 0.00 0.00 0.00 0.00 0.00 0.00 0.00 0.00 0.00 0.00 0.00 0.00
0.00 0.00 0.00 0.00 0.00 0.00 0.00 0.00 0.00 0.00 0.00 0.00 0.00 0.00 0.00 0.00 0.00 0.00 0.00 0.00 0.00 0.00 0.00 0.00 0.00 0.00 0.00 0.00 0.00 0.00 0.00 0.00 0.00 0.00 0.00 0.00 0.00 0.00 0.00 0.00 0.00 0.00 0.00 0.00 0.00 0.00 0.00 0.00 0.00
0.00 0.00 0.00 0.00 0.00 0.00 0.00 0.00 0.00 0.00 0.00 0.00 0.00 0.00 0.00 0.00 0.00 0.00 0.00 0.00 0.00 0.00 0.00 0.00 0.00 0.00 0.00 0.00 0.00 0.00 0.00 0.00 0.00 0.00 0.00 0.00 0.00 0.00 0.00 0.00 0.00 0.00 0.00 0.00 0.00 0.00 0.00 0.00 0.00
0.00 0.00 0.00 0.00 0.00 0.00 0.00 0.00 0.00 0.00 0.00 0.00 0.00 0.00 0.00 0.00 0.00 0.00 0.00 0.00 0.00 0.00 0.00 0.00 0.00 0.00 0.00 0.00 0.00 0.00 0.00 0.00 0.00 0.00 0.00 0.00 0.00 0.00 0.00 0.00 0.00 0.00 0.00 0.00 0.00 0.00 0.00 0.00 0.00
0.00 0.00 0.00 0.00 0.00 0.00 0.00 0.00 0.00 0.00 0.00 0.00 0.00 0.00 0.00 0.00 0.00 0.00 0.00 0.00 0.00 0.00 0.00 0.00 0.00 0.00 0.00 0.00 0.00 0.00 0.00 0.00 0.00 0.00 0.00 0.00 0.00 0.00 0.00 0.00 0.00 0.00 0.00 0.00 0.00 0.00 0.00 0.00 0.00
0.00 0.00 0.00 0.00 0.00 0.00 0.00 0.00 0.00 0.00 0.00 0.00 0.00 0.00 0.00 0.00 0.00 0.00 0.00 0.00 0.00 0.00 0.00 0.00 0.00 0.00 0.00 0.00 0.00 0.00 0.00 0.00 0.00 0.00 0.00 0.00 0.00 0.00 0.00 0.00 0.00 0.00 0.00 0.00 0.00 0.00 0.00 0.00 0.00
0.00 0.00 0.00 0.00 0.00 0.00 0.00 0.00 0.00 0.00 0.00 0.00 0.00 0.00 0.00 0.00 0.00 0.00 0.00 0.00 0.00 0.00 0.00 0.00 0.00 0.00 0.00 0.00 0.00 0.00 0.00 0.00 0.00 0.00 0.00 0.00 0.00 0.00 0.00 0.00 0.00 0.00 0.00 0.00 0.00 0.00 0.00 0.00 0.00
0.00 0.00 0.00 0.00 0.00 0.00 0.00 0.00 0.00 0.00 0.00 0.00 0.00 0.00 0.00 0.00 0.00 0.00 0.00 0.00 0.00 0.00 0.00 0.00 0.00 0.00 0.00 0.00 0.00 0.00 0.00 0.00 0.00 0.00 0.00 0.00 0.00 0.00 0.00 0.00 0.00 0.00 0.00 0.00 0.00 0.00 0.00 0.00 0.00
0.00 0.00 0.00 0.00 0.00 0.00 0.00 0.00 0.00 0.00 0.00 0.00 0.00 0.00 0.00 0.00 0.00 0.00 0.00 0.00 0.00 0.00 0.00 0.00 0.00 0.00 0.00 0.00 0.00 0.00 0.00 0.00 0.00 0.00 0.00 0.00 0.00 0.00 0.00 0.00 0.00 0.00 0.00 0.00 0.00 0.00 0.00 0.00 0.00
0.00 0.00 0.00 0.00 0.00 0.00 0.00 0.00 0.00 0.00 0.00 0.00 0.00 0.00 0.00 0.00 0.00 0.00 0.00 0.00 0.00 0.00 0.00 0.00 0.00 0.00 0.00 0.00 0.00 0.00 0.00 0.00 0.00 0.00 0.00 0.00 0.00 0.00 0.00 0.00 0.00 0.00 0.00 0.00 0.00 0.00 0.00 0.00 0.00
0.00 0.00 0.00 0.00 0.00 0.00 0.00 0.00 0.00 0.00 0.00 0.00 0.00 0.00 0.00 0.00 0.00 0.00 0.00 0.00 0.00 0.00 0.00 0.00 0.00 0.00 0.00 0.00 0.00 0.00 0.00 0.00 0.00 0.00 0.00 0.00 0.00 0.00 0.00 0.00 0.00 0.00 0.00 0.00 0.00 0.00 0.00 0.00 0.00
0.00 0.00 0.00 0.00 0.00 0.00 0.00 0.00 0.00 0.00 0.00 0.00 0.00 0.00 0.00 0.00 0.00 0.00 0.00 0.00 0.00 0.00 0.00 0.00 0.00 0.00 0.00 0.00 0.00 0.00 0.00 0.00 0.00 0.00 0.00 0.00 0.00 0.00 0.00 0.00 0.00 0.00 0.00 0.00 0.00 0.01 0.01 0.01 0.01
0.00 0.00 0.00 0.00 0.00 0.00 0.00 0.00 0.00 0.00 0.00 0.00 0.00 0.00 0.00 0.00 0.00 0.00 0.00 0.00 0.00 0.00 0.00 0.00 0.00 0.00 0.00 0.00 0.00 0.00 0.00 0.00 0.00 0.00 0.00 0.00 0.00 0.00 0.00 0.00 0.00 0.00 0.00 0.00 0.00 0.01 0.01 0.01 0.01
0.00 0.00 0.00 0.00 0.00 0.00 0.00 0.00 0.00 0.00 0.00 0.00 0.00 0.00 0.00 0.00 0.00 0.00 0.00 0.00 0.00 0.00 0.00 0.00 0.00 0.00 0.00 0.00 0.00 0.00 0.00 0.00 0.00 0.00 0.00 0.00 0.00 0.00 0.00 0.00 0.00 0.00 0.00 0.00 0.00 0.00 0.00 0.00 0.01
0.00 0.00 0.00 0.00 0.00 0.00 0.00 0.00 0.00 0.00 0.00 0.00 0.00 0.00 0.00 0.00 0.00 0.00 0.00 0.00 0.00 0.00 0.00 0.00 0.00 0.00 0.00 0.00 0.00 0.00 0.00 0.00 0.00 0.00 0.00 0.00 0.00 0.00 0.00 0.00 0.00 0.00 0.00 0.00 0.00 0.00 0.00 0.00 0.00
MSLP
1011.80 1012.23 1012.74 1013.18 1013.45 1013.47 1013.19 1012.66 1011.96 1011.22 1010.59 1010.16 1009.99 1010.07 1010.34 1010.70 1011.06 1011.31 1011.43 1011.43 1011.36 1011.30 1011.33 1011.49 1011.80 1012.23 1012.72 1013.19 1013.57 1013.83 1013.96 1014.00 1014.01 1014.04 1014.13 1014.29 1014.51 1014.76 1014.99 1015.16 1015.25 1015.27 1015.24 1015.19 1015.16 1015.18 1015.25 1015.36 1015.48
1012.22 1012.69 1013.16 1013.49 1013.59 1013.39 1012.90 1012.20 1011.39 1010.62 1010.02 1009.67 1009.60 1009.77 1010.11 1010.50 1010.85 1011.06 1011.14 1011.10 1011.03 1011.00 1011.08 1011.33 1011.74 1012.25 1012.80 1013.30 1013.69 1013.95 1014.08 1014.12 1014.14 1014.18 1014.30 1014.49 1014.74 1014.99 1015.22 1015.37 1015.44 1015.43 1015.39 1015.35 1015.34 1015.38 1015.47 1015.58 1015.70
1012.72 1013.20 1013.59 1013.76 1013.65 1013.22 1012.52 1011.65 1010.74 1009.95 1009.39 1009.14 1009.17 1009.45 1009.85 1010.27 1010.60 1010.78 1010.82 1010.76 1010.69 1010.69 1010.85 1011.18 1011.67 1012.27 1012.87 1013.41 1013.82 1014.07 1014.20 1014.25 1014.27 1014.34 1014.47 1014.68 1014.92 1015.17 1015.37 1015.49 1015.53 1015.51 1015.46 1015.43 1015.44 1015.51 1015.63 1015.76 1015.89
1013.26 1013.72 1013.99 1013.98 1013.64 1012.99 1012.09 1011.07 1010.10 1009.31 1008.82 1008.65 1008.80 1009.16 1009.63 1010.07 1010.39 1010.54 1010.54 1010.46 1010.40 1010.44 1010.65 1011.06 1011.63 1012.28 1012.93 1013.49 1013.91 1014.17 1014.30 1014.35 1014.38 1014.46 1014.60 1014.81 1015.05 1015.27 1015.44 1015.53 1015.55 1015.52 1015.48 1015.47 1015.51 1015.61 1015.76 1015.91 1016.04
1013.78 1014.17 1014.31 1014.12 1013.58 1012.73 1011.67 1010.55 1009.54 1008.78 1008.37 1008.31 1008.55 1008.99 1009.50 1009.96 1010.26 1010.38 1010.36 1010.27 1010.21 1010.28 1010.53 1010.99 1011.60 1012.29 1012.96 1013.52 1013.94 1014.20 1014.32 1014.38 1014.43 1014.52 1014.67 1014.87 1015.10 1015.30 1015.45 1015.52 1015.52 1015.49 1015.46 1015.48 1015.56 1015.70 1015.87 1016.04 1016.17
1014.19 1014.51 1014.52 1014.17 1013.47 1012.47 1011.31 1010.15 1009.15 1008.44 1008.11 1008.15 1008.47 1008.98 1009.52 1009.98 1010.26 1010.36 1010.31 1010.21 1010.16 1010.24 1010.51 1010.98 1011.61 1012.29 1012.94 1013.49 1013.89 1014.13 1014.26 1014.32 1014.39 1014.49 1014.66 1014.87 1015.09 1015.28 1015.41 1015.47 1015.47 1015.46 1015.45 1015.50 1015.61 1015.78 1015.97 1016.14 1016.26
1014.46 1014.69 1014.59 1014.12 1013.31 1012.24 1011.05 1009.89 1008.94 1008.31 1008.07 1008.18 1008.57 1009.11 1009.66 1010.10 1010.37 1010.45 1010.39 1010.28 1010.22 1010.31 1010.58 1011.03 1011.63 1012.27 1012.88 1013.38 1013.74 1013.97 1014.09 1014.17 1014.25 1014.38 1014.57 1014.79 1015.02 1015.21 1015.34 1015.41 1015.42 1015.42 1015.44 1015.52 1015.65 1015.83 1016.03 1016.20 1016.30
1014.57 1014.71 1014.52 1013.98 1013.12 1012.04 1010.87 1009.78 1008.90 1008.36 1008.19 1008.35 1008.77 1009.31 1009.85 1010.27 1010.52 1010.58 1010.52 1010.41 1010.36 1010.44 1010.69 1011.10 1011.64 1012.21 1012.75 1013.19 1013.51 1013.71 1013.83 1013.92 1014.03 1014.20 1014.41 1014.65 1014.90 1015.10 1015.24 1015.32 1015.35 1015.37 1015.41 1015.50 1015.65 1015.83 1016.02 1016.17 1016.24
1014.52 1014.58 1014.33 1013.76 1012.91 1011.87 1010.78 1009.77 1008.99 1008.52 1008.39 1008.57 1008.98 1009.49 1009.99 1010.38 1010.60 1010.66 1010.61 1010.52 1010.48 1010.55 1010.77 1011.14 1011.60 1012.09 1012.55 1012.93 1013.20 1013.38 1013.50 1013.61 1013.76 1013.95 1014.19 1014.46 1014.72 1014.94 1015.10 1015.19 1015.23 1015.27 1015.33 1015.42 1015.56 1015.73 1015.90 1016.02 1016.06
1014.35 1014.34 1014.05 1013.49 1012.68 1011.72 1010.73 1009.83 1009.13 1008.72 1008.60 1008.75 1009.10 1009.54 1009.98 1010.32 1010.52 1010.58 1010.55 1010.49 1010.48 1010.56 1010.76 1011.08 1011.48 1011.89 1012.28 1012.59 1012.82 1012.99 1013.12 1013.26 1013.43 1013.66 1013.93 1014.21 1014.48 1014.71 1014.87 1014.97 1015.03 1015.08 1015.14 1015.23 1015.36 1015.50 1015.64 1015.73 1015.75
1014.11 1014.04 1013.74 1013.19 1012.46 1011.60 1010.71 1009.91 1009.28 1008.88 1008.74 1008.82 1009.07 1009.41 1009.75 1010.03 1010.20 1010.27 1010.28 1010.26 1010.29 1010.39 1010.59 1010.88 1011.22 1011.58 1011.91 1012.18 1012.40 1012.56 1012.71 1012.87 1013.08 1013.32 1013.61 1013.90 1014.17 1014.39 1014.56 1014.66 1014.72 1014.77 1014.82 1014.91 1015.01 1015.14 1015.24 1015.30 1015.30
1013.85 1013.74 1013.42 1012.91 1012.25 1011.49 1010.70 1009.98 1009.38 1008.97 1008.76 1008.74 1008.86 1009.07 1009.30 1009.50 1009.64 1009.73 1009.77 1009.80 1009.88 1010.01 1010.22 1010.50 1010.82 1011.14 1011.45 1011.71 1011.92 1012.10 1012.28 1012.47 1012.69 1012.95 1013.23 1013.51 1013.76 1013.97 1014.12 1014.22 1014.28 1014.33 1014.39 1014.46 1014.55 1014.65 1014.74 1014.78 1014.77
1013.61 1013.45 1013.13 1012.66 1012.06 1011.39 1010.69 1010.03 1009.45 1009.00 1008.70 1008.55 1008.53 1008.59 1008.70 1008.82 1008.92 1009.00 1009.07 1009.15 1009.27 1009.44 1009.67 1009.95 1010.27 1010.59 1010.89 1011.16 1011.40 1011.62 1011.82 1012.04 1012.27 1012.52 1012.78 1013.04 1013.26 1013.45 1013.59 1013.68 1013.74 1013.80 1013.86 1013.93 1014.02 1014.10 1014.17 1014.21 1014.20
1013.41 1013.21 1012.88 1012.45 1011.92 1011.33 1010.70 1010.08 1009.50 1009.00 1008.61 1008.33 1008.16 1008.08 1008.07 1008.10 1008.15 1008.22 1008.30 1008.40 1008.55 1008.74 1008.98 1009.27 1009.59 1009.93 1010.26 1010.56 1010.84 1011.10 1011.34 1011.57 1011.80 1012.04 1012.27 1012.48 1012.68 1012.83 1012.96 1013.05 1013.13 1013.20 1013.28 1013.37 1013.46 1013.55 1013.62 1013.65 1013.65
1013.23 1013.00 1012.68 1012.29 1011.82 1011.30 1010.73 1010.15 1009.57 1009.03 1008.56 1008.18 1007.89 1007.69 1007.57 1007.52 1007.51 1007.54 1007.60 1007.70 1007.83 1008.01 1008.25 1008.53 1008.86 1009.21 1009.57 1009.91 1010.24 1010.55 1010.82 1011.07 1011.29 1011.50 1011.69 1011.86 1012.02 1012.15 1012.27 1012.38 1012.48 1012.59 1012.70 1012.81 1012.93 1013.03 1013.10 1013.14 1013.14
1013.07 1012.83 1012.53 1012.18 1011.78 1011.32 1010.82 1010.28 1009.71 1009.16 1008.64 1008.19 1007.81 1007.53 1007.33 1007.21 1007.14 1007.12 1007.13 1007.17 1007.25 1007.39 1007.57 1007.82 1008.13 1008.48 1008.87 1009.25 1009.63 1009.97 1010.27 1010.52 1010.73 1010.91 1011.06 1011.19 1011.31 1011.42 1011.55 1011.68 1011.82 1011.97 1012.13 1012.28 1012.43 1012.55 1012.64 1012.68 1012.69
1012.90 1012.68 1012.42 1012.12 1011.79 1011.41 1010.97 1010.48 1009.95 1009.41 1008.88 1008.40 1007.99 1007.67 1007.42 1007.25 1007.12 1007.03 1006.97 1006.92 1006.91 1006.95 1007.05 1007.23 1007.49 1007.82 1008.21 1008.62 1009.02 1009.39 1009.71 1009.96 1010.15 1010.28 1010.39 1010.47 1010.56 1010.67 1010.80 1010.97 1011.15 1011.36 1011.57 1011.77 1011.94 1012.09 1012.19 1012.24 1012.25
1012.73 1012.55 1012.35 1012.12 1011.87 1011.56 1011.20 1010.76 1010.28 1009.77 1009.27 1008.81 1008.41 1008.09 1007.84 1007.64 1007.47 1007.31 1007.16 1007.00 1006.87 1006.78 1006.76 1006.83 1007.01 1007.29 1007.65 1008.06 1008.47 1008.85 1009.16 1009.40 1009.55 1009.65 1009.70 1009.75 1009.81 1009.90 1010.05 1010.24 1010.47 1010.72 1010.98 1011.22 1011.42 1011.59 1011.70 1011.76 1011.77
1012.57 1012.46 1012.33 1012.19 1012.02 1011.78 1011.48 1011.10 1010.67 1010.20 1009.75 1009.34 1008.99 1008.71 1008.49 1008.30 1008.11 1007.90 1007.66 1007.39 1007.12 1006.89 1006.73 1006.67 1006.75 1006.95 1007.26 1007.63 1008.03 1008.39 1008.68 1008.88 1009.00 1009.04 1009.04 1009.03 1009.06 1009.14 1009.28 1009.49 1009.74 1010.03 1010.31 1010.58 1010.80 1010.98 1011.10 1011.17 1011.18
1012.44 1012.42 1012.39 1012.34 1012.23 1012.06 1011.79 1011.45 1011.06 1010.64 1010.24 1009.89 1009.61 1009.40 1009.24 1009.09 1008.92 1008.69 1008.39 1008.02 1007.63 1007.26 1006.95 1006.77 1006.73 1006.84 1007.07 1007.39 1007.73 1008.05 1008.31 1008.46 1008.52 1008.50 1008.43 1008.37 1008.35 1008.39 1008.51 1008.71 1008.96 1009.25 1009.54 1009.81 1010.04 1010.22 1010.35 1010.42 1010.44
1012.37 1012.46 1012.53 1012.56 1012.51 1012.37 1012.12 1011.78 1011.39 1010.99 1010.63 1010.34 1010.14 1010.01 1009.94 1009.86 1009.73 1009.52 1009.20 1008.78 1008.31 1007.83 1007.41 1007.10 1006.95 1006.96 1007.11 1007.35 1007.63 1007.89 1008.08 1008.17 1008.15 1008.06 1007.92 1007.79 1007.70 1007.68 1007.76 1007.92 1008.14 1008.40 1008.66 1008.91 1009.12 1009.28 1009.41 1009.48 1009.52
1012.39 1012.59 1012.76 1012.85 1012.83 1012.68 1012.41 1012.05 1011.63 1011.21 1010.86 1010.61 1010.47 1010.43 1010.44 1010.46 1010.41 1010.26 1009.96 1009.55 1009.04 1008.50 1008.01 1007.62 1007.37 1007.29 1007.35 1007.52 1007.72 1007.90 1008.01 1008.02 1007.93 1007.75 1007.54 1007.32 1007.15 1007.07 1007.07 1007.16 1007.31 1007.51 1007.71 1007.90 1008.07 1008.21 1008.32 1008.40 1008.45
1012.49 1012.80 1013.04 1013.17 1013.16 1012.99 1012.66 1012.23 1011.74 1011.28 1010.90 1010.66 1010.56 1010.59 1010.70 1010.81 1010.87 1010.80 1010.58 1010.21 1009.73 1009.19 1008.67 1008.24 1007.93 1007.78 1007.77 1007.85 1007.97 1008.07 1008.10 1008.03 1007.85 1007.59 1007.29 1007.00 1006.75 1006.57 1006.48 1006.48 1006.54 1006.64 1006.76 1006.88 1006.98 1007.06 1007.14 1007.22 1007.29
1012.66 1013.05 1013.35 1013.50 1013.47 1013.24 1012.84 1012.32 1011.74 1011.21 1010.78 1010.52 1010.43 1010.51 1010.69 1010.90 1011.07 1011.11 1010.99 1010.72 1010.30 1009.82 1009.32 1008.88 1008.55 1008.35 1008.28 1008.28 1008.32 1008.34 1008.30 1008.15 1007.90 1007.57 1007.20 1006.83 1006.50 1006.23 1006.05 1005.94 1005.90 1005.89 1005.90 1005.91 1005.93 1005.94 1005.97 1006.02 1006.09
1012.86 1013.30 1013.63 1013.78 1013.72 1013.43 1012.95 1012.33 1011.67 1011.05 1010.56 1010.25 1010.16 1010.25 1010.49 1010.77 1011.03 1011.19 1011.19 1011.03 1010.72 1010.32 1009.88 1009.47 1009.15 1008.93 1008.81 1008.75 1008.73 1008.68 1008.56 1008.35 1008.05 1007.67 1007.24 1006.82 1006.42 1006.08 1005.81 1005.60 1005.44 1005.31 1005.20 1005.10 1005.01 1004.93 1004.89 1004.88 1004.92
1013.04 1013.51 1013.84 1013.98 1013.88 1013.54 1012.99 1012.29 1011.55 1010.85 1010.30 1009.95 1009.82 1009.92 1010.17 1010.51 1010.84 1011.09 1011.21 1011.16 1010.97 1010.66 1010.31 1009.95 1009.66 1009.43 1009.29 1009.19 1009.11 1009.01 1008.84 1008.59 1008.25 1007.84 1007.39 1006.93 1006.49 1006.10 1005.75 1005.45 1005.19 1004.95 1004.71 1004.49 1004.28 1004.09 1003.95 1003.86 1003.83
1013.17 1013.63 1013.95 1014.06 1013.93 1013.55 1012.95 1012.21 1011.42 1010.68 1010.07 1009.68 1009.53 1009.60 1009.85 1010.20 1010.58 1010.90 1011.10 1011.15 1011.06 1010.87 1010.60 1010.31 1010.05 1009.84 1009.68 1009.55 1009.44 1009.29 1009.09 1008.82 1008.47 1008.06 1007.61 1007.14 1006.68 1006.25 1005.86 1005.49 1005.13 1004.78 1004.43 1004.08 1003.74 1003.43 1003.17 1002.98 1002.86
1013.22 1013.65 1013.93 1014.01 1013.85 1013.46 1012.85 1012.10 1011.30 1010.55 1009.93 1009.51 1009.32 1009.36 1009.59 1009.94 1010.33 1010.68 1010.94 1011.07 1011.07 1010.95 1010.77 1010.54 1010.33 1010.13 1009.97 1009.83 1009.69 1009.52 1009.31 1009.03 1008.69 1008.29 1007.85 1007.40 1006.95 1006.50 1006.07 1005.64 1005.21 1004.77 1004.31 1003.84 1003.38 1002.95 1002.56 1002.24 1002.01
1013.20 1013.56 1013.79 1013.83 1013.66 1013.26 1012.68 1011.96 1011.19 1010.46 1009.86 1009.44 1009.24 1009.25 1009.45 1009.77 1010.14 1010.50 1010.79 1010.97 1011.03 1010.99 1010.87 1010.71 1010.53 1010.36 1010.20 1010.05 1009.90 1009.72 1009.50 1009.22 1008.89 1008.51 1008.10 1007.67 1007.22 1006.77 1006.31 1005.84 1005.35 1004.82 1004.28 1003.71 1003.14 1002.59 1002.08 1001.64 1001.28
1013.13 1013.41 1013.56 1013.55 1013.36 1012.97 1012.42 1011.76 1011.06 1010.39 1009.83 1009.44 1009.25 1009.25 1009.42 1009.71 1010.07 1010.41 1010.71 1010.92 1011.03 1011.04 1010.98 1010.87 1010.72 1010.57 1010.42 1010.27 1010.10 1009.91 1009.69 1009.41 1009.09 1008.73 1008.33 1007.91 1007.47 1007.01 1006.52 1006.01 1005.46 1004.87 1004.25 1003.61 1002.95 1002.31 1001.71 1001.16 1000.68
Thickness
5737 5745 5751 5741 5720 5712 5719 5747 5769 5773 5778 5784 5786 5786 5780 5773 5765 5754 5774 5786 5786 5780 5776 5772 5770 5767 5765 5762 5759 5756 5754 5753 5753 5753 5752 5750 5748 5747 5747 5746 5744 5742 5740 5738 5736 5735 5734 5731 5728
5734 5741 5739 5726 5708 5702 5724 5753 5767 5774 5776 5784 5785 5786 5785 5773 5777 5772 5776 5782 5784 5780 5776 5773 5769 5766 5763 5760 5758 5755 5753 5752 5752 5751 5750 5748 5747 5746 5745 5743 5740 5739 5737 5735 5733 5731 5730 5727 5724
5733 5738 5724 5715 5709 5712 5732 5763 5773 5773 5782 5782 5781 5783 5780 5772 5778 5777 5780 5781 5783 5780 5776 5773 5768 5764 5761 5759 5757 5754 5752 5751 5750 5749 5748 5747 5745 5743 5741 5739 5737 5736 5733 5731 5729 5727 5724 5721 5719
5727 5724 5719 5709 5711 5731 5746 5759 5771 5772 5775 5779 5779 5775 5777 5780 5782 5780 5781 5780 5780 5779 5776 5770 5767 5763 5760 5758 5755 5753 5751 5749 5748 5746 5745 5744 5742 5740 5738 5736 5734 5733 5730 5727 5724 5721 5718 5715 5713
5723 5711 5703 5703 5717 5740 5759 5770 5772 5769 5772 5777 5777 5774 5768 5776 5781 5780 5778 5778 5777 5777 5774 5768 5765 5762 5760 5757 5753 5751 5749 5747 5746 5744 5742 5741 5739 5738 5735 5734 5732 5730 5727 5723 5719 5716 5713 5710 5707
5707 5707 5694 5699 5719 5744 5762 5778 5774 5768 5773 5778 5775 5772 5766 5776 5776 5777 5777 5775 5777 5776 5772 5766 5763 5760 5758 5755 5752 5749 5747 5746 5744 5742 5740 5739 5737 5735 5733 5732 5730 5727 5724 5720 5716 5712 5709 5706 5703
5695 5692 5692 5704 5718 5737 5762 5779 5772 5766 5769 5776 5783 5772 5765 5771 5776 5777 5775 5774 5775 5774 5771 5765 5761 5759 5757 5754 5751 5748 5746 5744 5743 5741 5739 5737 5735 5733 5731 5730 5728 5726 5722 5718 5714 5711 5707 5704 5700
5701 5694 5697 5706 5716 5734 5764 5772 5773 5767 5770 5784 5786 5770 5764 5772 5777 5776 5773 5772 5771 5770 5769 5766 5762 5759 5756 5753 5751 5748 5745 5744 5742 5740 5738 5736 5733 5731 5729 5728 5727 5724 5720 5716 5712 5709 5705 5702 5698
5701 5684 5687 5707 5720 5736 5754 5757 5767 5772 5773 5781 5784 5776 5778 5778 5776 5770 5767 5766 5765 5766 5766 5767 5765 5762 5758 5754 5751 5749 5746 5744 5742 5740 5738 5735 5733 5731 5729 5728 5725 5722 5718 5714 5710 5706 5703 5699 5696
5691 5676 5692 5718 5728 5733 5743 5751 5758 5761 5761 5770 5773 5773 5774 5772 5769 5765 5761 5759 5759 5760 5763 5765 5765 5762 5760 5757 5752 5749 5747 5745 5743 5741 5738 5735 5733 5732 5731 5727 5724 5720 5716 5712 5708 5704 5700 5697 5694
5694 5687 5702 5718 5733 5737 5739 5747 5759 5753 5752 5766 5768 5767 5769 5766 5764 5763 5761 5760 5760 5761 5762 5764 5763 5762 5760 5757 5753 5750 5749 5746 5743 5741 5738 5735 5734 5732 5729 5724 5721 5718 5714 5710 5706 5703 5700 5697 5694
5693 5699 5708 5717 5731 5732 5734 5743 5750 5754 5758 5775 5777 5775 5771 5765 5763 5762 5761 5762 5762 5762 5763 5764 5765 5762 5759 5756 5752 5751 5749 5747 5744 5741 5739 5736 5734 5731 5728 5724 5720 5716 5712 5707 5704 5701 5699 5698 5696
5693 5699 5709 5720 5729 5731 5734 5736 5743 5753 5769 5778 5777 5773 5768 5765 5764 5764 5764 5764 5766 5765 5766 5765 5764 5761 5758 5754 5751 5749 5748 5746 5744 5742 5739 5736 5732 5727 5724 5722 5719 5716 5712 5708 5704 5701 5700 5698 5696
5698 5704 5707 5718 5727 5732 5730 5735 5744 5751 5767 5771 5771 5767 5767 5766 5765 5764 5764 5765 5768 5769 5768 5767 5764 5760 5757 5753 5750 5747 5746 5744 5742 5739 5735 5732 5729 5725 5721 5719 5716 5714 5711 5708 5704 5700 5698 5696 5694
5700 5696 5701 5714 5722 5730 5729 5725 5738 5754 5763 5762 5764 5765 5766 5768 5768 5766 5767 5769 5771 5771 5770 5768 5766 5761 5756 5752 5749 5745 5742 5741 5738 5735 5733 5730 5727 5724 5721 5718 5715 5712 5709 5706 5704 5700 5697 5695 5692
5690 5684 5683 5710 5721 5726 5716 5710 5741 5759 5757 5754 5758 5763 5765 5768 5770 5771 5773 5774 5775 5773 5771 5770 5767 5762 5755 5751 5747 5744 5741 5739 5736 5733 5730 5728 5725 5723 5719 5716 5713 5712 5709 5706 5702 5698 5694 5691 5687
5676 5674 5683 5703 5721 5724 5716 5714 5737 5753 5752 5750 5754 5759 5762 5765 5768 5773 5777 5778 5778 5776 5772 5768 5764 5760 5756 5750 5747 5744 5741 5739 5736 5733 5730 5727 5725 5722 5719 5717 5715 5711 5708 5704 5700 5696 5691 5686 5682
5673 5679 5689 5697 5713 5717 5713 5714 5730 5743 5746 5746 5750 5753 5754 5755 5759 5767 5772 5774 5775 5775 5773 5769 5765 5761 5757 5752 5746 5741 5739 5738 5737 5734 5732 5728 5725 5722 5719 5717 5713 5709 5705 5701 5696 5691 5686 5682 5677
5687 5692 5691 5704 5711 5715 5709 5714 5728 5736 5738 5739 5739 5739 5741 5745 5752 5757 5760 5762 5763 5764 5764 5764 5762 5760 5756 5749 5742 5737 5733 5733 5732 5732 5730 5727 5723 5720 5717 5715 5710 5705 5701 5697 5693 5687 5681 5677 5671
5689 5686 5690 5703 5713 5709 5706 5713 5724 5730 5730 5732 5730 5730 5733 5737 5741 5745 5748 5748 5749 5750 5752 5753 5755 5755 5753 5749 5743 5738 5733 5731 5730 5728 5727 5725 5720 5716 5713 5710 5706 5701 5697 5692 5688 5682 5676 5672 5665
5681 5678 5685 5695 5705 5707 5700 5702 5712 5722 5726 5726 5726 5728 5730 5731 5732 5734 5736 5736 5737 5738 5740 5743 5744 5746 5747 5745 5739 5734 5729 5725 5722 5721 5720 5717 5713 5709 5707 5705 5701 5697 5693 5688 5684 5677 5671 5666 5661
5671 5683 5684 5688 5681 5687 5694 5681 5698 5710 5713 5716 5717 5720 5722 5725 5726 5726 5727 5727 5727 5730 5733 5735 5737 5738 5738 5737 5732 5726 5719 5715 5715 5713 5713 5713 5711 5708 5705 5700 5695 5691 5686 5683 5679 5673 5668 5661 5656
5674 5682 5683 5683 5678 5678 5695 5686 5691 5705 5702 5707 5711 5714 5716 5719 5719 5719 5718 5718 5719 5721 5723 5726 5727 5727 5727 5725 5722 5719 5715 5713 5712 5710 5709 5709 5709 5708 5705 5699 5692 5687 5684 5681 5676 5670 5664 5659 5653
5676 5676 5676 5676 5670 5664 5690 5681 5687 5702 5703 5704 5707 5710 5711 5713 5713 5711 5711 5712 5712 5713 5714 5714 5714 5713 5713 5712 5710 5707 5704 5702 5700 5698 5697 5697 5698 5698 5696 5692 5686 5681 5676 5673 5668 5663 5658 5654 5649
5667 5660 5653 5649 5649 5666 5687 5681 5690 5711 5714 5711 5707 5707 5707 5707 5704 5702 5701 5702 5702 5703 5703 5703 5702 5700 5699 5698 5696 5694 5692 5690 5687 5685 5684 5683 5682 5681 5681 5679 5677 5673 5668 5664 5659 5654 5651 5648 5643
5664 5667 5656 5654 5661 5669 5675 5672 5700 5715 5716 5713 5709 5705 5703 5700 5697 5695 5693 5692 5692 5693 5692 5691 5689 5687 5686 5684 5682 5680 5679 5676 5673 5671 5669 5667 5665 5664 5664 5663 5662 5662 5659 5655 5650 5645 5643 5640 5637
5671 5669 5677 5667 5671 5662 5679 5699 5709 5712 5707 5704 5701 5699 5696 5693 5692 5688 5686 5685 5685 5684 5682 5680 5677 5675 5673 5671 5669 5666 5663 5661 5658 5656 5654 5652 5650 5650 5649 5647 5645 5645 5645 5644 5642 5638 5636 5633 5630
5668 5673 5665 5661 5657 5655 5679 5687 5688 5692 5695 5696 5695 5693 5691 5689 5684 5681 5678 5676 5676 5674 5672 5669 5665 5661 5659 5656 5653 5650 5647 5645 5643 5640 5637 5635 5634 5634 5633 5633 5630 5628 5628 5628 5629 5628 5628 5625 5623
5661 5664 5664 5665 5666 5654 5659 5678 5698 5699 5699 5693 5689 5687 5684 5680 5675 5671 5669 5668 5666 5663 5660 5655 5650 5646 5642 5638 5635 5632 5630 5628 5626 5622 5620 5618 5617 5617 5617 5617 5616 5615 5613 5612 5611 5612 5612 5611 5610
5668 5669 5665 5652 5656 5658 5652 5665 5700 5696 5692 5688 5683 5682 5679 5674 5668 5663 5660 5657 5653 5649 5645 5640 5634 5629 5625 5622 5618 5616 5613 5611 5608 5605 5603 5601 5599 5598 5598 5598 5597 5597 5597 5596 5594 5594 5594 5593 5591